Satellite-Ground Cal/Val Site Overpasses Predictions

Prediction of Satellite NPP Overpassing Cal/Val Site: Antarctic Dome C

Ground Cal/Val Site Location: Latitude: -75.10, Longitude: 123.35; Satellite-Ground Site NADIR distance within 100 km.

Table of predicted overpasses for the next 14.0 days since TLE Epoch: 4/20/2019
Interval Starting Time Ending Time Minimum Distance Time Minimum Distance (km)
1 04/20/2019 14:48:16 04/20/2019 14:48:45 04/20/2019 14:48:30 16.28
2 04/22/2019 07:31:07 04/22/2019 07:31:37 04/22/2019 07:31:22 1.43
3 04/25/2019 14:54:36 04/25/2019 14:55:04 04/25/2019 14:54:50 20.57
4 04/26/2019 14:35:55 04/26/2019 14:36:09 04/26/2019 14:36:02 86.29
5 04/27/2019 07:37:27 04/27/2019 07:37:54 04/27/2019 07:37:40 34.92
6 04/28/2019 07:18:42 04/28/2019 07:19:01 04/28/2019 07:18:51 75.18
7 04/30/2019 15:00:57 04/30/2019 15:01:21 04/30/2019 15:01:09 57.84
8 05/01/2019 14:42:07 05/01/2019 14:42:32 05/01/2019 14:42:19 51.30
9 05/02/2019 07:43:48 05/02/2019 07:44:09 05/02/2019 07:43:59 70.31


NCC Satellite Cal/Val Overpasses Prediction Service
